Tikaboo Peak, Nevada Weather observations

Data are for 10 minute period ending at time listed.
 Day   Time   Solar   Ave.   Ave.  Ave.  Vector  Max.   Baro.   Total    
  of    of     Rad.   Air    Rel.  Wind   Wind   Wind  Press.  Precip.   
Year   Day            Temp.  Hum.  Speed  Dir.   Gust                    
2026   (PST)  Kw/m2    F      %     mph   deg.    mph    mb.     in.     
-------------------------------------------------------------------------
 128    4:30   0.00   54.3    23    6.3    74    13.2   764.2    0.00 
 128    4:40   0.00   53.7    23    7.4    77    14.7   764.2    0.00 
 128    4:50   0.01   54.2    23    7.7    79    16.5   764.2    0.00 
 128    5:00   0.03   54.9    22   10.8    83    21.0   764.2    0.00 
 128    5:10   0.05   56.0    22   11.7    80    17.0   764.2    0.00 
 128    5:20   0.08   57.7    21   10.0    78    15.6   764.3    0.00 
 128    5:30   0.11   59.2    21   10.9    82    16.9   764.4    0.00 
 128    5:40   0.14   61.0    20    6.9    85    14.0   764.4    0.00 
 128    5:50   0.17   62.1    20    6.6    84    13.7   764.5    0.00 
 128    6:00   0.20   63.2    19    8.5    82    14.9   764.5    0.00 
 128    6:10   0.24   64.4    19    6.1    76    13.0   764.5    0.00 
 128    6:20   0.28   64.7    18    2.7    73    10.5   764.7    0.00 
 128    6:30   0.32   65.6    19    3.1    68     8.5   764.7    0.00 
 128    6:40   0.36   67.0    18    3.0    75    10.2   764.8    0.00 
 128    6:50   0.40   67.6    18    6.1    78    11.0   764.8    0.00 
 128    7:00   0.44   67.2    17    6.4    84    12.3   764.8    0.00 
 128    7:10   0.48   66.9    17    4.1    79    10.8   764.8    0.00 
 128    7:20   0.52   67.8    18    3.8    81     9.1   764.8    0.00 
 128    7:30   0.56   68.3    17    3.4    78     9.3   764.8    0.00 
 128    7:40   0.60   67.6    17    1.9    91     8.8   764.8    0.00 
 128    7:50   0.64   68.8    17    2.5    77     8.6   764.8    0.00 
 128    8:00   0.67   70.2    16    3.3    77     8.8   764.9    0.00 
 128    8:10   0.71   69.5    16    1.6    78     5.3   764.8    0.00 
 128    8:20   0.74   69.1    16    3.5    77    11.8   764.8    0.00 
 128    8:30   0.77   69.9    16    2.4    65     7.3   764.9    0.00 
 128    8:40   0.81   70.0    16    2.3    60     9.7   764.9    0.00 
 128    8:50   0.84   70.5    16    2.3    73     8.3   765.0    0.00 
 128    9:00   0.86   70.0    16    2.5    92     8.7   765.1    0.00 
 128    9:10   0.89   69.6    16    2.5    80     8.0   765.1    0.00 
 128    9:20   0.92   70.6    15    3.5    78    10.1   765.1    0.00 
 128    9:30   0.95   72.2    14    4.5    68    12.9   765.2    0.00 
 128    9:40   0.97   70.8    12    3.5    46    11.0   765.2    0.00 
 128    9:50   1.00   71.6    13    2.7    78    11.5   765.2    0.00 
 128   10:00   1.01   72.5    11    2.4    95    11.6   765.2    0.00 
 128   10:10   1.03   73.0    11    2.1    38    10.2   765.3    0.00 
 128   10:20   1.05   73.3    12    1.7    76     7.7   765.2    0.00 
 128   10:30   1.06   73.4    12    1.5    75     7.6   765.2    0.00 
 128   10:40   1.08   73.6    12    4.2    80    14.1   765.2    0.00 
 128   10:50   1.09   73.3    12    2.4    96    10.8   765.1    0.00 
 128   11:00   1.10   72.8    11    2.4    95    12.4   765.1    0.00 
 128   11:10   1.11   73.5    11    1.4    70     7.3   765.1    0.00 
 128   11:20   1.11   73.6    11    3.4    70    10.4   765.0    0.00 
 128   11:30   1.11   73.4    12    2.4    62    12.4   765.0    0.00 
 128   11:40   1.12   73.9    11    3.5    49    10.9   764.9    0.00 
 128   11:50   1.12   74.1    11    3.0    78    11.6   764.9    0.00 
 128   12:00   1.11   73.2    11    3.2    81    11.0   764.9    0.00 
 128   12:10   1.10   74.2    11    2.4    71    10.5   764.9    0.00 
 128   12:20   1.10   74.4    10    6.6    59    17.9   764.7    0.00 
 128   12:30   1.09   74.8    10    2.9    82    13.8   764.7    0.00 
 128   12:40   1.08   74.2    10    3.1    92    12.5   764.6    0.00 
 128   12:50   1.07   73.5    11    3.8    98    13.5   764.6    0.00 
 128   13:00   1.05   74.4    11    3.8    48    15.8   764.6    0.00 
 128   13:10   1.04   74.6    10    5.7    51    18.0   764.5    0.00 
 128   13:20   1.00   73.7    11    2.6   161    13.5   764.5    0.00 
 128   13:30   1.00   74.4    11    3.6    63    14.8   764.5    0.00 
 128   13:40   0.97   75.0    10    8.1    37    19.7   764.4    0.00 
 128   13:50   0.95   74.7     9    6.7    33    17.2   764.3    0.00 
 128   14:00   0.93   73.4     9    7.8    38    22.6   764.0    0.00 
 128   14:10   0.91   73.9     9    3.5    69    15.0   764.1    0.00 
 128   14:20   0.88   74.0     9    2.4   103    11.0   764.1    0.00 
 128   14:30   0.85   73.9     9    4.5   100    18.1   764.0    0.00 
 128   14:40   0.69   73.5     9    3.3   124    17.2   763.9    0.00 
 128   14:50   0.79   73.8     8    4.8    62    17.8   763.8    0.00 
 128   15:00   0.76   74.2     8    5.8    46    20.7   763.7    0.00 
 128   15:10   0.73   73.2     8    2.5    97    12.5   763.8    0.00 
 128   15:20   0.69   73.3     8    3.5   108    11.8   763.6    0.00 
 128   15:30   0.66   73.1     7    2.8   123    14.1   763.5    0.00 
 128   15:40   0.62   73.4     7    5.6    40    18.1   763.5    0.00 
 128   15:50   0.58   73.0     7    4.9    61    15.2   763.4    0.00 
 128   16:00   0.54   72.7     7    3.4    67    14.5   763.4    0.00 
 128   16:10   0.50   72.5     7    3.8    62    14.6   763.5    0.00 
 128   16:20   0.46   72.4     6    3.5    49    15.6   763.2    0.00 
 128   16:30   0.42   71.6     7    3.9    55    17.8   763.1    0.00 
 128   16:40   0.38   71.1     6    1.9   346     8.1   763.1    0.00 
 128   16:50   0.34   70.6     6    2.6    30    14.3   763.0    0.00 
 128   17:00   0.30   69.3     6    1.6   152     9.4   763.1    0.00 
 128   17:10   0.26   67.9     6    1.4   328     6.0   763.0    0.00 
 128   17:20   0.22   67.4     7    1.6   318     8.4   763.0    0.00 
 128   17:30   0.19   66.6     7    1.6    80     7.8   763.0    0.00 
 128   17:40   0.16   66.1     8    1.8   340     6.9   763.1    0.00 
 128   17:50   0.13   65.8     7    1.1   280     5.9   763.0    0.00 
 128   18:00   0.10   65.0     8    1.0   358     6.4   763.1    0.00 
 128   18:10   0.07   64.5     8    1.6   188     8.0   763.1    0.00 
 128   18:20   0.05   64.1     8    1.3   169     4.7   763.2    0.00 
 128   18:30   0.03   63.6     9    1.6   166     7.7   763.2    0.00 
 128   18:40   0.02   63.3     9    1.6   159     4.7   763.3    0.00 
 128   18:50   0.01   63.1     9    2.5   128    15.6   763.2    0.00 
 128   19:00   0.00   62.9     9    2.1   144     6.5   763.3    0.00 
 128   19:10   0.00   62.7     9    2.2   128     7.5   763.4    0.00 
 128   19:20   0.00   62.4     9    1.9   128     9.5   763.5    0.00 
 128   19:30   0.00   62.1     9    3.4    70    21.2   763.6    0.00 
 128   19:40   0.00   61.9     9    5.1    69    18.5   763.6    0.00 
 128   19:50   0.00   61.7     9    3.3    46    13.5   763.7    0.00 
 128   20:00   0.00   61.7     9    4.9    68    18.3   763.7    0.00 
 128   20:10   0.00   61.4     9    6.0    75    18.5   763.7    0.00 
 128   20:20   0.00   61.7     9    5.1    44    17.8   763.8    0.00 
 128   20:30   0.00   61.7     9    4.0    79    14.8   763.8    0.00 
 128   20:40   0.00   61.6     9    4.1    90    16.0   763.9    0.00 
 128   20:50   0.00   61.5     9    2.1    86    10.2   763.9    0.00 
 128   21:00   0.00   61.1     9    2.2    73    12.9   763.9    0.00 
 128   21:10   0.00   60.9    10    3.6    81    16.4   764.0    0.00 
 128   21:20   0.00   60.6    10    1.6   105     6.7   764.1    0.00 
 128   21:30   0.00   60.8    10    2.5    92    10.6   764.1    0.00 
 128   21:40   0.00   60.9    10    1.9   115     6.7   764.1    0.00 
 128   21:50   0.00   60.9    10    1.8    99    11.7   764.1    0.00 
 128   22:00   0.00   60.8    10    3.7    78    15.2   764.0    0.00 
 128   22:10   0.00   60.6    10    4.3    60    16.4   763.9    0.00 
 128   22:20   0.00   60.5    10    5.9    65    21.0   763.9    0.00 
 128   22:30   0.00   60.4    10    3.7    51    14.6   763.9    0.00 
 128   22:40   0.00   60.5    10    3.5    69    13.8   764.0    0.00 
 128   22:50   0.00   60.2    10    5.0    69    17.3   764.0    0.00 
 128   23:00   0.00   60.0    10    3.4    56    16.8   763.9    0.00 
 128   23:10   0.00   59.8     9    7.2    59    19.1   763.9    0.00 
 128   23:20   0.00   59.2    11    7.6    60    20.8   763.9    0.00 
 128   23:30   0.00   59.1    12    4.4    54    12.9   764.0    0.00 
 128   23:40   0.00   58.9    11    4.7    69    13.8   764.0    0.00 
 128   23:50   0.00   58.5    12   11.1    80    17.6   763.9    0.00 
 129    0:00   0.00   58.6    13   12.5    88    22.7   763.9    0.00 
 129    0:10   0.00   60.1    14   20.6   114    28.9   763.8    0.00 
 129    0:20   0.00   60.7    14   22.2   116    30.1   763.8    0.00 
 129    0:30   0.00   60.1    15   23.9   126    26.9   763.8    0.00 
 129    0:40   0.00   59.8    15   23.6   133    28.9   763.7    0.00 
 129    0:50   0.00   59.5    16   23.7   137    30.2   763.7    0.00 
 129    1:00   0.00   59.3    17   23.5   134    27.8   763.7    0.00 
 129    1:10   0.00   59.2    17   23.6   136    28.4   763.6    0.00 
 129    1:20   0.00   58.7    17   23.9   146    28.5   763.6    0.00 
 129    1:30   0.00   58.4    18   24.9   148    32.4   763.6    0.00 
 129    1:40   0.00   58.0    19   24.8   150    30.5   763.6    0.00 
 129    1:50   0.00   57.8    19   25.0   151    31.2   763.6    0.00 
 129    2:00   0.00   57.5    20   23.6   153    29.0   763.6    0.00 
 129    2:10   0.00   57.4    20   24.3   152    29.7   763.6    0.00 
 129    2:20   0.00   57.1    20   24.9   154    31.2   763.5    0.00 
 129    2:30   0.00   57.2    20   24.5   152    29.2   763.6    0.00 
 129    2:40   0.00   57.1    21   25.4   152    31.4   763.7    0.00 
 129    2:50   0.00   56.9    21   22.7   152    29.1   763.7    0.00 
 129    3:00   0.00   56.8    21   22.8   150    27.8   763.6    0.00 
 129    3:10   0.00   56.6    21   24.6   146    30.5   763.6    0.00 
 129    3:20   0.00   56.8    21   24.3   148    28.7   763.7    0.00 
 129    3:30   0.00   56.6    21   22.0   150    27.3   763.7    0.00 
 129    3:40   0.00   56.6    21   21.2   150    26.8   763.7    0.00 
 129    3:50   0.00   56.5    21   23.1   148    29.0   766.8    0.00 
 129    4:00   0.00   56.3    21   23.1   150    28.3   763.6    0.00 
 129    4:10   0.00   56.1    21   23.2   151    27.0   763.6    0.00 
 129    4:20   0.00   55.8    21   21.5   149    26.0   763.7    0.00 

Return to Tikaboo Peak graphs page.


Western Regional Climate Center,wrcc@dri.edu